Date,TemperatureHighF,TemperatureAvgF,TemperatureLowF,DewpointHighF,DewpointAvgF,DewpointLowF,HumidityHigh,HumidityAvg,HumidityLow,PressureMaxIn,PressureMinIn,WindSpeedMaxMPH,WindSpeedAvgMPH,GustSpeedMaxMPH,PrecipitationSumIn
2013-9-1,92.5,77.1,62.2,56.4,52.2,46.7,63,44,23,30.12,28.49,34,7,34,0.00
2013-9-2,93.9,76.7,63.3,58.1,52.5,40.2,80,47,22,30.14,28.50,17,5,17,0.00
2013-9-3,92.8,76.3,66.6,58.5,53.2,48.1,63,46,24,30.15,30.05,31,5,31,0.00
2013-9-4,97.0,78.1,61.9,56.4,51.7,42.3,74,44,22,30.18,28.65,42,5,42,0.00
2013-9-5,93.6,79.6,63.7,50.2,39.7,30.3,49,26,12,30.19,30.07,21,7,21,0.00
2013-9-6,95.4,78.1,61.9,44.3,37.8,29.9,45,25,13,30.18,28.54,55,4,55,0.00
2013-9-7,94.6,77.7,61.7,51.0,42.1,31.4,45,30,14,30.11,28.56,50,7,50,0.00
2013-9-8,87.8,73.5,61.0,54.4,51.1,45.4,67,47,24,30.07,28.44,51,6,51,0.00
2013-9-9,86.4,67.1,59.4,59.3,55.2,49.5,96,69,33,29.99,29.12,27,5,47,0.09
2013-9-10,66.2,62.3,59.5,60.7,58.0,55.9,95,86,79,30.04,29.93,24,7,24,0.53
2013-9-11,83.3,68.3,58.8,60.4,54.0,43.0,97,64,29,30.09,28.51,12,4,12,0.00
2013-9-12,81.7,63.5,56.5,60.7,55.9,50.8,97,78,40,30.11,30.00,34,7,34,1.07
2013-9-13,74.3,63.5,55.0,59.9,55.4,53.4,98,77,52,30.04,29.92,22,7,22,0.01
2013-9-14,79.7,65.3,57.9,56.7,53.8,50.5,92,68,39,30.01,29.88,27,7,27,0.01
2013-9-15,82.6,65.2,54.7,54.3,51.3,46.6,92,64,32,30.07,28.53,52,5,52,0.01
2013-9-16,84.4,67.3,54.7,53.8,50.9,45.6,85,59,30,30.14,30.02,16,6,16,0.00
2013-9-17,83.7,71.8,59.2,54.9,51.8,45.8,77,52,29,30.07,29.14,20,8,20,0.00
2013-9-18,77.0,66.3,58.5,61.4,55.5,52.2,93,69,50,29.99,29.86,27,7,27,0.28
2013-9-19,81.0,66.1,52.0,53.7,44.4,24.2,93,53,15,30.00,29.92,18,4,18,0.00
2013-9-20,85.1,67.1,49.1,47.7,40.8,30.6,78,43,17,30.06,28.45,12,4,12,0.00
2013-9-21,83.7,67.6,55.4,51.4,47.0,37.9,71,50,23,30.04,29.12,36,6,36,0.01
2013-9-22,75.6,61.1,54.3,58.4,52.0,47.2,91,74,41,29.88,28.90,38,15,38,0.14
2013-9-23,69.6,59.2,50.7,51.8,44.0,33.0,91,61,28,30.21,29.77,30,18,30,0.14
2013-9-24,81.3,59.9,42.1,43.9,38.5,30.7,83,50,20,30.26,30.08,14,3,14,0.00
2013-9-25,81.9,65.1,47.3,41.2,33.5,23.3,67,36,14,30.08,29.83,36,10,36,0.00
2013-9-26,64.4,61.3,58.1,26.5,24.5,22.6,29,24,21,29.93,29.91,18,9,18,0.00
2013-9-27,64.2,51.8,42.8,47.1,31.9,18.3,93,50,24,30.17,29.89,20,6,20,0.11
2013-9-28,67.8,49.1,32.2,35.7,27.1,17.7,90,48,19,30.31,28.72,48,3,48,0.00
2013-9-29,74.1,55.3,35.8,34.6,26.4,19.9,74,38,14,30.32,30.17,14,3,14,0.00
2013-9-30,78.6,60.8,41.5,31.8,27.7,22.6,62,31,15,30.19,30.07,17,4,17,0.00